owner,sensor,date,latitude,longitude,vertical_datum,sea_water_temperature,qcFlag 
TABS,ioos:station:wmo:42043:1,2001-05-11T13:00:00Z,28.9818,-94.9186,-2.0,24.26,11111222 
TABS,ioos:station:wmo:42043:1,2001-05-11T13:30:00Z,28.9818,-94.9186,-2.0,24.29,11111222 
TABS,ioos:station:wmo:42043:1,2001-05-11T14:00:00Z,28.9818,-94.9186,-2.0,24.42,11111222 
TABS,ioos:station:wmo:42043:1,2001-05-11T14:30:00Z,28.9818,-94.9186,-2.0,24.63,11111222 
TABS,ioos:station:wmo:42043:1,2001-05-11T15:00:00Z,28.9818,-94.9186,-2.0,24.73,11111222 
TABS,ioos:station:wmo:42043:1,2001-05-11T15:30:00Z,28.9818,-94.9186,-2.0,24.92,11111222 
TABS,ioos:station:wmo:42043:1,2001-05-11T16:00:00Z,28.9818,-94.9186,-2.0,25.04,11111222 
TABS,ioos:station:wmo:42043:1,2001-05-11T16:30:00Z,28.9818,-94.9186,-2.0,25.17,11111222 
TABS,ioos:station:wmo:42043:1,2001-05-11T17:00:00Z,28.9818,-94.9186,-2.0,25.19,11111222 
TABS,ioos:station:wmo:42043:1,2001-05-11T17:30:00Z,28.9818,-94.9186,-2.0,25.38,11111222 
TABS,ioos:station:wmo:42043:1,2001-05-11T18:00:00Z,28.9818,-94.9186,-2.0,25.48,11111222 
TABS,ioos:station:wmo:42043:1,2001-05-11T18:30:00Z,28.9818,-94.9186,-2.0,25.18,11111222 
TABS,ioos:station:wmo:42043:1,2001-05-11T19:00:00Z,28.9818,-94.9186,-2.0,25.42,11111222 
TABS,ioos:station:wmo:42043:1,2001-05-11T19:30:00Z,28.9818,-94.9186,-2.0,25.55,11111222 
TABS,ioos:station:wmo:42043:1,2001-05-11T20:00:00Z,28.9818,-94.9186,-2.0,25.17,11111222 
TABS,ioos:station:wmo:42043:1,2001-05-11T20:30:00Z,28.9818,-94.9186,-2.0,24.95,11111222 
TABS,ioos:station:wmo:42043:1,2001-05-11T21:00:00Z,28.9818,-94.9186,-2.0,25.48,11111222 
TABS,ioos:station:wmo:42043:1,2001-05-11T21:30:00Z,28.9818,-94.9186,-2.0,25.52,11111222 
TABS,ioos:station:wmo:42043:1,2001-05-11T22:00:00Z,28.9818,-94.9186,-2.0,25.58,11111222 
TABS,ioos:station:wmo:42043:1,2001-05-11T22:30:00Z,28.9818,-94.9186,-2.0,25.41,11111222 
TABS,ioos:station:wmo:42043:1,2001-05-11T23:00:00Z,28.9818,-94.9186,-2.0,25.28,11111222 
TABS,ioos:station:wmo:42043:1,2001-05-11T23:30:00Z,28.9818,-94.9186,-2.0,24.94,11111222 
TABS,ioos:station:wmo:42043:1,2001-05-12T00:00:00Z,28.9818,-94.9186,-2.0,24.92,11111222 
TABS,ioos:station:wmo:42043:1,2001-05-12T00:30:00Z,28.9818,-94.9186,-2.0,24.88,11111222 
TABS,ioos:station:wmo:42043:1,2001-05-12T01:00:00Z,28.9818,-94.9186,-2.0,24.94,11111222 
TABS,ioos:station:wmo:42043:1,2001-05-12T01:30:00Z,28.9818,-94.9186,-2.0,24.8,11111222 
TABS,ioos:station:wmo:42043:1,2001-05-12T02:00:00Z,28.9818,-94.9186,-2.0,24.76,11111222 
TABS,ioos:station:wmo:42043:1,2001-05-12T02:30:00Z,28.9818,-94.9186,-2.0,24.68,11111222 
TABS,ioos:station:wmo:42043:1,2001-05-12T03:00:00Z,28.9818,-94.9186,-2.0,24.89,11111222 
TABS,ioos:station:wmo:42043:1,2001-05-12T03:30:00Z,28.9818,-94.9186,-2.0,24.85,11111222 
TABS,ioos:station:wmo:42043:1,2001-05-12T04:00:00Z,28.9818,-94.9186,-2.0,24.96,11111222 
TABS,ioos:station:wmo:42043:1,2001-05-12T04:30:00Z,28.9818,-94.9186,-2.0,24.9,11111222 
TABS,ioos:station:wmo:42043:1,2001-05-12T05:00:00Z,28.9818,-94.9186,-2.0,24.71,11111222 
TABS,ioos:station:wmo:42043:1,2001-05-12T05:30:00Z,28.9818,-94.9186,-2.0,24.58,11111222 
TABS,ioos:station:wmo:42043:1,2001-05-12T06:00:00Z,28.9818,-94.9186,-2.0,24.5,11111222 
TABS,ioos:station:wmo:42043:1,2001-05-12T06:30:00Z,28.9818,-94.9186,-2.0,24.45,11111222 
TABS,ioos:station:wmo:42043:1,2001-05-12T07:00:00Z,28.9818,-94.9186,-2.0,24.49,11111222 
TABS,ioos:station:wmo:42043:1,2001-05-12T07:30:00Z,28.9818,-94.9186,-2.0,24.51,11111222 
TABS,ioos:station:wmo:42043:1,2001-05-12T08:00:00Z,28.9818,-94.9186,-2.0,24.52,11111222 
TABS,ioos:station:wmo:42043:1,2001-05-12T08:30:00Z,28.9818,-94.9186,-2.0,24.51,11111222 
TABS,ioos:station:wmo:42043:1,2001-05-12T09:00:00Z,28.9818,-94.9186,-2.0,24.48,11111222 
TABS,ioos:station:wmo:42043:1,2001-05-12T09:30:00Z,28.9818,-94.9186,-2.0,24.48,11111222 
TABS,ioos:station:wmo:42043:1,2001-05-12T10:00:00Z,28.9818,-94.9186,-2.0,24.47,11111222 
TABS,ioos:station:wmo:42043:1,2001-05-12T10:30:00Z,28.9818,-94.9186,-2.0,24.44,11111222 
TABS,ioos:station:wmo:42043:1,2001-05-12T11:00:00Z,28.9818,-94.9186,-2.0,24.45,11111222 
TABS,ioos:station:wmo:42043:1,2001-05-12T11:30:00Z,28.9818,-94.9186,-2.0,24.43,11111222 
TABS,ioos:station:wmo:42043:1,2001-05-12T12:00:00Z,28.9818,-94.9186,-2.0,24.44,11111222 
TABS,ioos:station:wmo:42043:1,2001-05-12T12:30:00Z,28.9818,-94.9186,-2.0,24.41,11111222 
TABS,ioos:station:wmo:42043:1,2001-05-12T13:00:00Z,28.9818,-94.9186,-2.0,24.43,11111222 
TABS,ioos:station:wmo:42043:1,2001-05-12T13:30:00Z,28.9818,-94.9186,-2.0,24.5,11111222 
TABS,ioos:station:wmo:42043:1,2001-05-12T14:00:00Z,28.9818,-94.9186,-2.0,24.66,11111222 
TABS,ioos:station:wmo:42043:1,2001-05-12T14:30:00Z,28.9818,-94.9186,-2.0,24.77,11111222 
TABS,ioos:station:wmo:42043:1,2001-05-12T15:00:00Z,28.9818,-94.9186,-2.0,25.0,11111222 
TABS,ioos:station:wmo:42043:1,2001-05-12T15:30:00Z,28.9818,-94.9186,-2.0,25.1,11111222 
TABS,ioos:station:wmo:42043:1,2001-05-12T16:00:00Z,28.9818,-94.9186,-2.0,25.25,11111222 
TABS,ioos:station:wmo:42043:1,2001-05-12T16:30:00Z,28.9818,-94.9186,-2.0,25.39,11111222 
TABS,ioos:station:wmo:42043:1,2001-05-12T17:00:00Z,28.9818,-94.9186,-2.0,25.44,11111222 
TABS,ioos:station:wmo:42043:1,2001-05-12T17:30:00Z,28.9818,-94.9186,-2.0,25.41,11111222 
TABS,ioos:station:wmo:42043:1,2001-05-12T18:00:00Z,28.9818,-94.9186,-2.0,25.48,11111222 
TABS,ioos:station:wmo:42043:1,2001-05-12T18:30:00Z,28.9818,-94.9186,-2.0,25.52,11111222 
TABS,ioos:station:wmo:42043:1,2001-05-12T19:00:00Z,28.9818,-94.9186,-2.0,25.55,11111222 
TABS,ioos:station:wmo:42043:1,2001-05-12T19:30:00Z,28.9818,-94.9186,-2.0,25.5,11111222 
TABS,ioos:station:wmo:42043:1,2001-05-12T20:00:00Z,28.9818,-94.9186,-2.0,25.5,11111222 
TABS,ioos:station:wmo:42043:1,2001-05-12T20:30:00Z,28.9818,-94.9186,-2.0,25.47,11111222 
TABS,ioos:station:wmo:42043:1,2001-05-12T21:00:00Z,28.9818,-94.9186,-2.0,25.81,11111222 
TABS,ioos:station:wmo:42043:1,2001-05-12T21:30:00Z,28.9818,-94.9186,-2.0,25.48,11111222 
TABS,ioos:station:wmo:42043:1,2001-05-12T22:00:00Z,28.9818,-94.9186,-2.0,25.29,11111222 
TABS,ioos:station:wmo:42043:1,2001-05-12T22:30:00Z,28.9818,-94.9186,-2.0,25.28,11111222 
TABS,ioos:station:wmo:42043:1,2001-05-12T23:00:00Z,28.9818,-94.9186,-2.0,25.29,11111222 
TABS,ioos:station:wmo:42043:1,2001-05-12T23:30:00Z,28.9818,-94.9186,-2.0,25.28,11111222 
TABS,ioos:station:wmo:42043:1,2001-05-13T00:00:00Z,28.9818,-94.9186,-2.0,25.29,11111222 
TABS,ioos:station:wmo:42043:1,2001-05-13T00:30:00Z,28.9818,-94.9186,-2.0,25.35,11111222 
TABS,ioos:station:wmo:42043:1,2001-05-13T01:00:00Z,28.9818,-94.9186,-2.0,25.36,11111222 
TABS,ioos:station:wmo:42043:1,2001-05-13T01:30:00Z,28.9818,-94.9186,-2.0,25.45,11111222 
TABS,ioos:station:wmo:42043:1,2001-05-13T02:00:00Z,28.9818,-94.9186,-2.0,25.54,11111222 
TABS,ioos:station:wmo:42043:1,2001-05-13T02:30:00Z,28.9818,-94.9186,-2.0,25.48,11111222 
TABS,ioos:station:wmo:42043:1,2001-05-13T03:00:00Z,28.9818,-94.9186,-2.0,25.37,11111222 
TABS,ioos:station:wmo:42043:1,2001-05-13T03:30:00Z,28.9818,-94.9186,-2.0,25.42,11111222 
TABS,ioos:station:wmo:42043:1,2001-05-13T04:00:00Z,28.9818,-94.9186,-2.0,25.43,11111222 
TABS,ioos:station:wmo:42043:1,2001-05-13T04:30:00Z,28.9818,-94.9186,-2.0,25.17,11111222 
TABS,ioos:station:wmo:42043:1,2001-05-13T05:00:00Z,28.9818,-94.9186,-2.0,25.07,11111222 
TABS,ioos:station:wmo:42043:1,2001-05-13T05:30:00Z,28.9818,-94.9186,-2.0,25.07,11111222 
TABS,ioos:station:wmo:42043:1,2001-05-13T06:00:00Z,28.9818,-94.9186,-2.0,25.19,11111222 
TABS,ioos:station:wmo:42043:1,2001-05-13T06:30:00Z,28.9818,-94.9186,-2.0,25.19,11111222 
TABS,ioos:station:wmo:42043:1,2001-05-13T07:00:00Z,28.9818,-94.9186,-2.0,25.52,11111222 
TABS,ioos:station:wmo:42043:1,2001-05-13T07:30:00Z,28.9818,-94.9186,-2.0,25.55,11111222 
TABS,ioos:station:wmo:42043:1,2001-05-13T08:00:00Z,28.9818,-94.9186,-2.0,25.6,11111222 
TABS,ioos:station:wmo:42043:1,2001-05-13T08:30:00Z,28.9818,-94.9186,-2.0,25.44,11111222 
TABS,ioos:station:wmo:42043:1,2001-05-13T09:00:00Z,28.9818,-94.9186,-2.0,25.53,11111222 
TABS,ioos:station:wmo:42043:1,2001-05-13T09:30:00Z,28.9818,-94.9186,-2.0,25.59,11111222 
TABS,ioos:station:wmo:42043:1,2001-05-13T10:00:00Z,28.9818,-94.9186,-2.0,25.57,11111222 
TABS,ioos:station:wmo:42043:1,2001-05-13T10:30:00Z,28.9818,-94.9186,-2.0,25.48,11111222 
TABS,ioos:station:wmo:42043:1,2001-05-13T11:00:00Z,28.9818,-94.9186,-2.0,25.32,11111222 
TABS,ioos:station:wmo:42043:1,2001-05-13T11:30:00Z,28.9818,-94.9186,-2.0,25.29,11111222 
TABS,ioos:station:wmo:42043:1,2001-05-13T12:00:00Z,28.9818,-94.9186,-2.0,25.22,11111222 
TABS,ioos:station:wmo:42043:1,2001-05-13T12:30:00Z,28.9818,-94.9186,-2.0,25.31,11111222 
TABS,ioos:station:wmo:42043:1,2001-05-13T13:00:00Z,28.9818,-94.9186,-2.0,25.1,11111222 
TABS,ioos:station:wmo:42043:1,2001-05-13T13:30:00Z,28.9818,-94.9186,-2.0,25.08,11111222 
TABS,ioos:station:wmo:42043:1,2001-05-13T14:00:00Z,28.9818,-94.9186,-2.0,25.07,11111222 
TABS,ioos:station:wmo:42043:1,2001-05-13T14:30:00Z,28.9818,-94.9186,-2.0,24.98,11111222 
TABS,ioos:station:wmo:42043:1,2001-05-13T15:00:00Z,28.9818,-94.9186,-2.0,24.86,11111222 
TABS,ioos:station:wmo:42043:1,2001-05-13T15:30:00Z,28.9818,-94.9186,-2.0,24.82,11111222 
TABS,ioos:station:wmo:42043:1,2001-05-13T16:00:00Z,28.9818,-94.9186,-2.0,24.87,11111222 
TABS,ioos:station:wmo:42043:1,2001-05-13T16:30:00Z,28.9818,-94.9186,-2.0,25.11,11111222 
TABS,ioos:station:wmo:42043:1,2001-05-13T17:00:00Z,28.9818,-94.9186,-2.0,25.07,11111222 
TABS,ioos:station:wmo:42043:1,2001-05-13T17:30:00Z,28.9818,-94.9186,-2.0,25.06,11111222 
TABS,ioos:station:wmo:42043:1,2001-05-13T18:00:00Z,28.9818,-94.9186,-2.0,25.24,11111222 
TABS,ioos:station:wmo:42043:1,2001-05-13T18:30:00Z,28.9818,-94.9186,-2.0,25.57,11111222 
TABS,ioos:station:wmo:42043:1,2001-05-13T19:00:00Z,28.9818,-94.9186,-2.0,25.45,11111222 
TABS,ioos:station:wmo:42043:1,2001-05-13T19:30:00Z,28.9818,-94.9186,-2.0,25.67,11111222 
TABS,ioos:station:wmo:42043:1,2001-05-13T20:00:00Z,28.9818,-94.9186,-2.0,25.75,11111222 
TABS,ioos:station:wmo:42043:1,2001-05-13T20:30:00Z,28.9818,-94.9186,-2.0,25.89,11111222 
TABS,ioos:station:wmo:42043:1,2001-05-13T21:00:00Z,28.9818,-94.9186,-2.0,25.88,11111222 
TABS,ioos:station:wmo:42043:1,2001-05-13T21:30:00Z,28.9818,-94.9186,-2.0,25.84,11111222 
TABS,ioos:station:wmo:42043:1,2001-05-13T22:00:00Z,28.9818,-94.9186,-2.0,26.12,11111222 
TABS,ioos:station:wmo:42043:1,2001-05-13T22:30:00Z,28.9818,-94.9186,-2.0,26.23,11111222 
TABS,ioos:station:wmo:42043:1,2001-05-13T23:00:00Z,28.9818,-94.9186,-2.0,26.41,11111222 
TABS,ioos:station:wmo:42043:1,2001-05-13T23:30:00Z,28.9818,-94.9186,-2.0,26.43,11111222 
TABS,ioos:station:wmo:42043:1,2001-05-14T00:00:00Z,28.9818,-94.9186,-2.0,26.19,11111222 
TABS,ioos:station:wmo:42043:1,2001-05-14T00:30:00Z,28.9818,-94.9186,-2.0,26.08,11111222 
TABS,ioos:station:wmo:42043:1,2001-05-14T01:00:00Z,28.9818,-94.9186,-2.0,26.01,11111222 
TABS,ioos:station:wmo:42043:1,2001-05-14T01:30:00Z,28.9818,-94.9186,-2.0,25.92,11111222 
TABS,ioos:station:wmo:42043:1,2001-05-14T02:00:00Z,28.9818,-94.9186,-2.0,25.83,11111222 
TABS,ioos:station:wmo:42043:1,2001-05-14T02:30:00Z,28.9818,-94.9186,-2.0,25.88,11111222 
TABS,ioos:station:wmo:42043:1,2001-05-14T03:00:00Z,28.9818,-94.9186,-2.0,25.91,11111222 
TABS,ioos:station:wmo:42043:1,2001-05-14T03:30:00Z,28.9818,-94.9186,-2.0,25.85,11111222 
TABS,ioos:station:wmo:42043:1,2001-05-14T04:00:00Z,28.9818,-94.9186,-2.0,25.87,11111222 
TABS,ioos:station:wmo:42043:1,2001-05-14T04:30:00Z,28.9818,-94.9186,-2.0,25.71,11111222 
TABS,ioos:station:wmo:42043:1,2001-05-14T05:00:00Z,28.9818,-94.9186,-2.0,25.76,11111222 
TABS,ioos:station:wmo:42043:1,2001-05-14T05:30:00Z,28.9818,-94.9186,-2.0,25.77,11111222 
TABS,ioos:station:wmo:42043:1,2001-05-14T06:00:00Z,28.9818,-94.9186,-2.0,25.75,11111222 
TABS,ioos:station:wmo:42043:1,2001-05-14T06:30:00Z,28.9818,-94.9186,-2.0,25.74,11111222 
TABS,ioos:station:wmo:42043:1,2001-05-14T07:00:00Z,28.9818,-94.9186,-2.0,25.71,11111222 
TABS,ioos:station:wmo:42043:1,2001-05-14T07:30:00Z,28.9818,-94.9186,-2.0,25.66,11111222 
TABS,ioos:station:wmo:42043:1,2001-05-14T08:00:00Z,28.9818,-94.9186,-2.0,25.64,11111222 
TABS,ioos:station:wmo:42043:1,2001-05-14T08:30:00Z,28.9818,-94.9186,-2.0,25.62,11111222 
TABS,ioos:station:wmo:42043:1,2001-05-14T09:00:00Z,28.9818,-94.9186,-2.0,25.62,11111222 
TABS,ioos:station:wmo:42043:1,2001-05-14T09:30:00Z,28.9818,-94.9186,-2.0,25.61,11111222 
TABS,ioos:station:wmo:42043:1,2001-05-14T10:00:00Z,28.9818,-94.9186,-2.0,25.57,11111222 
TABS,ioos:station:wmo:42043:1,2001-05-14T10:30:00Z,28.9818,-94.9186,-2.0,25.54,11111222 
TABS,ioos:station:wmo:42043:1,2001-05-14T11:00:00Z,28.9818,-94.9186,-2.0,25.47,11111222 
TABS,ioos:station:wmo:42043:1,2001-05-14T11:30:00Z,28.9818,-94.9186,-2.0,25.47,11111222 
TABS,ioos:station:wmo:42043:1,2001-05-14T12:00:00Z,28.9818,-94.9186,-2.0,25.5,11111222 
TABS,ioos:station:wmo:42043:1,2001-05-14T12:30:00Z,28.9818,-94.9186,-2.0,25.47,11111222 
TABS,ioos:station:wmo:42043:1,2001-05-14T13:00:00Z,28.9818,-94.9186,-2.0,25.44,11111222 
TABS,ioos:station:wmo:42043:1,2001-05-14T13:30:00Z,28.9818,-94.9186,-2.0,25.48,11111222 
TABS,ioos:station:wmo:42043:1,2001-05-14T14:00:00Z,28.9818,-94.9186,-2.0,25.46,11111222 
TABS,ioos:station:wmo:42043:1,2001-05-14T14:30:00Z,28.9818,-94.9186,-2.0,25.44,11111222 
TABS,ioos:station:wmo:42043:1,2001-05-14T15:00:00Z,28.9818,-94.9186,-2.0,25.48,11111222 
TABS,ioos:station:wmo:42043:1,2001-05-14T15:30:00Z,28.9818,-94.9186,-2.0,25.43,11111222 
TABS,ioos:station:wmo:42043:1,2001-05-14T16:00:00Z,28.9818,-94.9186,-2.0,25.35,11111222 
TABS,ioos:station:wmo:42043:1,2001-05-14T16:30:00Z,28.9818,-94.9186,-2.0,25.3,11111222 
TABS,ioos:station:wmo:42043:1,2001-05-14T17:00:00Z,28.9818,-94.9186,-2.0,25.19,11111222 
TABS,ioos:station:wmo:42043:1,2001-05-14T17:30:00Z,28.9818,-94.9186,-2.0,25.26,11111222 
TABS,ioos:station:wmo:42043:1,2001-05-14T18:00:00Z,28.9818,-94.9186,-2.0,25.25,11111222 
TABS,ioos:station:wmo:42043:1,2001-05-14T18:30:00Z,28.9818,-94.9186,-2.0,25.32,11111222 
TABS,ioos:station:wmo:42043:1,2001-05-14T19:00:00Z,28.9818,-94.9186,-2.0,25.41,11111222 
TABS,ioos:station:wmo:42043:1,2001-05-14T19:30:00Z,28.9818,-94.9186,-2.0,25.5,11111222 
TABS,ioos:station:wmo:42043:1,2001-05-14T20:00:00Z,28.9818,-94.9186,-2.0,25.57,11111222 
TABS,ioos:station:wmo:42043:1,2001-05-14T20:30:00Z,28.9818,-94.9186,-2.0,25.7,11111222 
TABS,ioos:station:wmo:42043:1,2001-05-14T21:00:00Z,28.9818,-94.9186,-2.0,25.71,11111222 
TABS,ioos:station:wmo:42043:1,2001-05-14T21:30:00Z,28.9818,-94.9186,-2.0,26.63,11111222 
TABS,ioos:station:wmo:42043:1,2001-05-14T22:00:00Z,28.9818,-94.9186,-2.0,26.73,11111222 
TABS,ioos:station:wmo:42043:1,2001-05-14T22:30:00Z,28.9818,-94.9186,-2.0,26.86,11111222 
TABS,ioos:station:wmo:42043:1,2001-05-14T23:00:00Z,28.9818,-94.9186,-2.0,26.75,11111222 
TABS,ioos:station:wmo:42043:1,2001-05-14T23:30:00Z,28.9818,-94.9186,-2.0,26.77,11111222 
TABS,ioos:station:wmo:42043:1,2001-05-15T00:00:00Z,28.9818,-94.9186,-2.0,26.97,11111222 
TABS,ioos:station:wmo:42043:1,2001-05-15T00:30:00Z,28.9818,-94.9186,-2.0,27.15,11111222 
TABS,ioos:station:wmo:42043:1,2001-05-15T01:00:00Z,28.9818,-94.9186,-2.0,27.04,11111222 
TABS,ioos:station:wmo:42043:1,2001-05-15T01:30:00Z,28.9818,-94.9186,-2.0,26.68,11111222 
TABS,ioos:station:wmo:42043:1,2001-05-15T02:00:00Z,28.9818,-94.9186,-2.0,26.48,11111222 
TABS,ioos:station:wmo:42043:1,2001-05-15T02:30:00Z,28.9818,-94.9186,-2.0,26.48,11111222 
TABS,ioos:station:wmo:42043:1,2001-05-15T03:00:00Z,28.9818,-94.9186,-2.0,26.45,11111222 
TABS,ioos:station:wmo:42043:1,2001-05-15T03:30:00Z,28.9818,-94.9186,-2.0,26.39,11111222 
TABS,ioos:station:wmo:42043:1,2001-05-15T04:00:00Z,28.9818,-94.9186,-2.0,26.24,11111222 
TABS,ioos:station:wmo:42043:1,2001-05-15T04:30:00Z,28.9818,-94.9186,-2.0,26.09,11111222 
TABS,ioos:station:wmo:42043:1,2001-05-15T05:00:00Z,28.9818,-94.9186,-2.0,25.83,11111222 
TABS,ioos:station:wmo:42043:1,2001-05-15T05:30:00Z,28.9818,-94.9186,-2.0,25.61,11111222 
TABS,ioos:station:wmo:42043:1,2001-05-15T06:00:00Z,28.9818,-94.9186,-2.0,25.59,11111222 
TABS,ioos:station:wmo:42043:1,2001-05-15T06:30:00Z,28.9818,-94.9186,-2.0,25.59,11111222 
TABS,ioos:station:wmo:42043:1,2001-05-15T07:00:00Z,28.9818,-94.9186,-2.0,25.57,11111222 
TABS,ioos:station:wmo:42043:1,2001-05-15T07:30:00Z,28.9818,-94.9186,-2.0,25.56,11111222 
TABS,ioos:station:wmo:42043:1,2001-05-15T08:00:00Z,28.9818,-94.9186,-2.0,25.58,11111222 
TABS,ioos:station:wmo:42043:1,2001-05-15T08:30:00Z,28.9818,-94.9186,-2.0,25.54,11111222 
TABS,ioos:station:wmo:42043:1,2001-05-15T09:00:00Z,28.9818,-94.9186,-2.0,25.5,11111222 
TABS,ioos:station:wmo:42043:1,2001-05-15T09:30:00Z,28.9818,-94.9186,-2.0,25.51,11111222 
TABS,ioos:station:wmo:42043:1,2001-05-15T10:00:00Z,28.9818,-94.9186,-2.0,25.49,11111222 
TABS,ioos:station:wmo:42043:1,2001-05-15T10:30:00Z,28.9818,-94.9186,-2.0,25.47,11111222 
TABS,ioos:station:wmo:42043:1,2001-05-15T11:00:00Z,28.9818,-94.9186,-2.0,25.45,11111222 
TABS,ioos:station:wmo:42043:1,2001-05-15T11:30:00Z,28.9818,-94.9186,-2.0,25.46,11111222 
TABS,ioos:station:wmo:42043:1,2001-05-15T12:00:00Z,28.9818,-94.9186,-2.0,25.41,11111222 
TABS,ioos:station:wmo:42043:1,2001-05-15T12:30:00Z,28.9818,-94.9186,-2.0,25.38,11111222 
TABS,ioos:station:wmo:42043:1,2001-05-15T13:00:00Z,28.9818,-94.9186,-2.0,25.41,11111222 
TABS,ioos:station:wmo:42043:1,2001-05-15T13:30:00Z,28.9818,-94.9186,-2.0,25.44,11111222 
TABS,ioos:station:wmo:42043:1,2001-05-15T14:00:00Z,28.9818,-94.9186,-2.0,25.54,11111222 
TABS,ioos:station:wmo:42043:1,2001-05-15T14:30:00Z,28.9818,-94.9186,-2.0,25.56,11111222 
TABS,ioos:station:wmo:42043:1,2001-05-15T15:00:00Z,28.9818,-94.9186,-2.0,25.65,11111222 
TABS,ioos:station:wmo:42043:1,2001-05-15T15:30:00Z,28.9818,-94.9186,-2.0,25.79,11111222 
TABS,ioos:station:wmo:42043:1,2001-05-15T16:00:00Z,28.9818,-94.9186,-2.0,25.87,11111222 
TABS,ioos:station:wmo:42043:1,2001-05-15T16:30:00Z,28.9818,-94.9186,-2.0,25.94,11111222 
TABS,ioos:station:wmo:42043:1,2001-05-15T17:00:00Z,28.9818,-94.9186,-2.0,25.97,11111222 
TABS,ioos:station:wmo:42043:1,2001-05-15T17:30:00Z,28.9818,-94.9186,-2.0,26.0,11111222 
TABS,ioos:station:wmo:42043:1,2001-05-15T18:00:00Z,28.9818,-94.9186,-2.0,26.15,11111222 
TABS,ioos:station:wmo:42043:1,2001-05-15T18:30:00Z,28.9818,-94.9186,-2.0,26.13,11111222 
TABS,ioos:station:wmo:42043:1,2001-05-15T19:00:00Z,28.9818,-94.9186,-2.0,26.11,11111222 
TABS,ioos:station:wmo:42043:1,2001-05-15T19:30:00Z,28.9818,-94.9186,-2.0,26.04,11111222 
TABS,ioos:station:wmo:42043:1,2001-05-15T20:00:00Z,28.9818,-94.9186,-2.0,25.94,11111222 
TABS,ioos:station:wmo:42043:1,2001-05-15T20:30:00Z,28.9818,-94.9186,-2.0,25.98,11111222 
TABS,ioos:station:wmo:42043:1,2001-05-15T21:00:00Z,28.9818,-94.9186,-2.0,25.98,11111222 
TABS,ioos:station:wmo:42043:1,2001-05-15T21:30:00Z,28.9818,-94.9186,-2.0,26.48,11111222 
TABS,ioos:station:wmo:42043:1,2001-05-15T22:00:00Z,28.9818,-94.9186,-2.0,26.45,11111222 
TABS,ioos:station:wmo:42043:1,2001-05-15T22:30:00Z,28.9818,-94.9186,-2.0,26.75,11111222 
TABS,ioos:station:wmo:42043:1,2001-05-15T23:00:00Z,28.9818,-94.9186,-2.0,26.89,11111222 
TABS,ioos:station:wmo:42043:1,2001-05-15T23:30:00Z,28.9818,-94.9186,-2.0,26.86,11111222 
TABS,ioos:station:wmo:42043:1,2001-05-16T00:00:00Z,28.9818,-94.9186,-2.0,26.89,11111222 
TABS,ioos:station:wmo:42043:1,2001-05-16T00:30:00Z,28.9818,-94.9186,-2.0,26.86,11111222 
TABS,ioos:station:wmo:42043:1,2001-05-16T01:00:00Z,28.9818,-94.9186,-2.0,26.84,11111222 
TABS,ioos:station:wmo:42043:1,2001-05-16T01:30:00Z,28.9818,-94.9186,-2.0,26.82,11111222 
TABS,ioos:station:wmo:42043:1,2001-05-16T02:00:00Z,28.9818,-94.9186,-2.0,26.81,11111222 
TABS,ioos:station:wmo:42043:1,2001-05-16T02:30:00Z,28.9818,-94.9186,-2.0,26.76,11111222 
TABS,ioos:station:wmo:42043:1,2001-05-16T03:00:00Z,28.9818,-94.9186,-2.0,26.73,11111222 
TABS,ioos:station:wmo:42043:1,2001-05-16T03:30:00Z,28.9818,-94.9186,-2.0,26.69,11111222 
TABS,ioos:station:wmo:42043:1,2001-05-16T04:00:00Z,28.9818,-94.9186,-2.0,26.66,11111222 
TABS,ioos:station:wmo:42043:1,2001-05-16T04:30:00Z,28.9818,-94.9186,-2.0,26.7,11111222 
TABS,ioos:station:wmo:42043:1,2001-05-16T05:00:00Z,28.9818,-94.9186,-2.0,26.68,11111222 
TABS,ioos:station:wmo:42043:1,2001-05-16T05:30:00Z,28.9818,-94.9186,-2.0,26.7,11111222 
TABS,ioos:station:wmo:42043:1,2001-05-16T06:00:00Z,28.9818,-94.9186,-2.0,26.67,11111222 
TABS,ioos:station:wmo:42043:1,2001-05-16T06:30:00Z,28.9818,-94.9186,-2.0,26.61,11111222 
TABS,ioos:station:wmo:42043:1,2001-05-16T07:00:00Z,28.9818,-94.9186,-2.0,26.61,11111222 
TABS,ioos:station:wmo:42043:1,2001-05-16T07:30:00Z,28.9818,-94.9186,-2.0,26.62,11111222 
TABS,ioos:station:wmo:42043:1,2001-05-16T08:00:00Z,28.9818,-94.9186,-2.0,26.65,11111222 
TABS,ioos:station:wmo:42043:1,2001-05-16T08:30:00Z,28.9818,-94.9186,-2.0,26.75,11111222 
TABS,ioos:station:wmo:42043:1,2001-05-16T09:00:00Z,28.9818,-94.9186,-2.0,26.77,11111222 
TABS,ioos:station:wmo:42043:1,2001-05-16T09:30:00Z,28.9818,-94.9186,-2.0,26.77,11111222 
TABS,ioos:station:wmo:42043:1,2001-05-16T10:00:00Z,28.9818,-94.9186,-2.0,26.68,11111222 
TABS,ioos:station:wmo:42043:1,2001-05-16T10:30:00Z,28.9818,-94.9186,-2.0,26.54,11111222 
TABS,ioos:station:wmo:42043:1,2001-05-16T11:00:00Z,28.9818,-94.9186,-2.0,26.45,11111222 
TABS,ioos:station:wmo:42043:1,2001-05-16T11:30:00Z,28.9818,-94.9186,-2.0,26.33,11111222 
TABS,ioos:station:wmo:42043:1,2001-05-16T12:00:00Z,28.9818,-94.9186,-2.0,26.13,11111222 
TABS,ioos:station:wmo:42043:1,2001-05-16T12:30:00Z,28.9818,-94.9186,-2.0,26.06,11111222 
TABS,ioos:station:wmo:42043:1,2001-05-16T13:00:00Z,28.9818,-94.9186,-2.0,26.06,11111222 
TABS,ioos:station:wmo:42043:1,2001-05-16T13:30:00Z,28.9818,-94.9186,-2.0,26.04,11111222 
TABS,ioos:station:wmo:42043:1,2001-05-16T14:00:00Z,28.9818,-94.9186,-2.0,26.06,11111222 
TABS,ioos:station:wmo:42043:1,2001-05-16T14:30:00Z,28.9818,-94.9186,-2.0,25.99,11111222 
TABS,ioos:station:wmo:42043:1,2001-05-16T15:00:00Z,28.9818,-94.9186,-2.0,25.92,11111222 
TABS,ioos:station:wmo:42043:1,2001-05-16T15:30:00Z,28.9818,-94.9186,-2.0,25.91,11111222 
TABS,ioos:station:wmo:42043:1,2001-05-16T16:00:00Z,28.9818,-94.9186,-2.0,25.83,11111222 
TABS,ioos:station:wmo:42043:1,2001-05-16T16:30:00Z,28.9818,-94.9186,-2.0,25.83,11111222 
TABS,ioos:station:wmo:42043:1,2001-05-16T17:00:00Z,28.9818,-94.9186,-2.0,25.84,11111222 
TABS,ioos:station:wmo:42043:1,2001-05-16T17:30:00Z,28.9818,-94.9186,-2.0,25.89,11111222 
TABS,ioos:station:wmo:42043:1,2001-05-16T18:00:00Z,28.9818,-94.9186,-2.0,25.95,11111222 
TABS,ioos:station:wmo:42043:1,2001-05-16T18:30:00Z,28.9818,-94.9186,-2.0,26.04,11111222 
TABS,ioos:station:wmo:42043:1,2001-05-16T19:00:00Z,28.9818,-94.9186,-2.0,26.09,11111222 
TABS,ioos:station:wmo:42043:1,2001-05-16T19:30:00Z,28.9818,-94.9186,-2.0,26.16,11111222 
TABS,ioos:station:wmo:42043:1,2001-05-16T20:00:00Z,28.9818,-94.9186,-2.0,26.27,11111222 
TABS,ioos:station:wmo:42043:1,2001-05-16T20:30:00Z,28.9818,-94.9186,-2.0,26.3,11111222 
TABS,ioos:station:wmo:42043:1,2001-05-16T21:00:00Z,28.9818,-94.9186,-2.0,26.3,11111222 
TABS,ioos:station:wmo:42043:1,2001-05-16T21:30:00Z,28.9818,-94.9186,-2.0,26.33,11111222 
TABS,ioos:station:wmo:42043:1,2001-05-16T22:00:00Z,28.9818,-94.9186,-2.0,26.42,11111222 
TABS,ioos:station:wmo:42043:1,2001-05-16T22:30:00Z,28.9818,-94.9186,-2.0,26.38,11111222 
TABS,ioos:station:wmo:42043:1,2001-05-16T23:00:00Z,28.9818,-94.9186,-2.0,26.4,11111222 
TABS,ioos:station:wmo:42043:1,2001-05-16T23:30:00Z,28.9818,-94.9186,-2.0,26.37,11111222 
TABS,ioos:station:wmo:42043:1,2001-05-17T00:00:00Z,28.9818,-94.9186,-2.0,26.29,11111222 
TABS,ioos:station:wmo:42043:1,2001-05-17T00:30:00Z,28.9818,-94.9186,-2.0,26.22,11111222 
TABS,ioos:station:wmo:42043:1,2001-05-17T01:00:00Z,28.9818,-94.9186,-2.0,26.16,11111222 
TABS,ioos:station:wmo:42043:1,2001-05-17T01:30:00Z,28.9818,-94.9186,-2.0,26.09,11111222 
TABS,ioos:station:wmo:42043:1,2001-05-17T02:00:00Z,28.9818,-94.9186,-2.0,25.97,11111222 
TABS,ioos:station:wmo:42043:1,2001-05-17T02:30:00Z,28.9818,-94.9186,-2.0,25.91,11111222 